| time (UTC) | temp F | wind direction | speed MPH | gust MPH | rain 1hr in | rain 24hr in | rain mn in | humidity % | barometer mb |
| 20260831071524 | 62 | 317 | 0.0 | 4.0 | 0.00 | 0.00 | 0.00 | 71 | 1014.0 |
| 20260831070026 | 63 | 55 | 0.0 | 5.0 | 0.00 | 0.00 | 0.00 | 71 | 1014.1 |
| 20260831064520 | 63 | 303 | 0.0 | 9.0 | 0.00 | 0.00 | 0.00 | 71 | 1014.3 |
| 20260831063019 | 63 | 275 | 0.0 | 3.0 | 0.00 | 0.00 | 0.00 | 71 | 1014.4 |
| 20260831061517 | 63 | 281 | 0.0 | 7.0 | 0.00 | 0.00 | 0.00 | 70 | 1014.6 |
| 20260831060016 | 63 | 286 | 0.0 | 4.0 | 0.00 | 0.00 | 0.00 | 70 | 1014.6 |
| 20260831054515 | 63 | 301 | 0.0 | 5.0 | 0.00 | 0.00 | 0.00 | 70 | 1014.9 |
| 20260831053013 | 63 | 50 | 0.0 | 3.0 | 0.00 | 0.00 | 0.00 | 70 | 1015.1 |
| 20260831051518 | 63 | 310 | 0.0 | 4.0 | 0.00 | 0.00 | 0.00 | 69 | 1015.3 |
| 20260831050010 | 63 | 317 | 0.0 | 8.0 | 0.00 | 0.00 | 0.00 | 68 | 1015.3 |
| 20260831044509 | 64 | 12 | 0.0 | 7.0 | 0.00 | 0.00 | 0.00 | 68 | 1015.5 |
| 20260831043009 | 64 | 309 | 0.0 | 5.0 | 0.00 | 0.00 | 0.00 | 68 | 1015.5 |
| 20260831041507 | 64 | 259 | 1.0 | 7.0 | 0.00 | 0.00 | 0.00 | 67 | 1015.6 |
| 20260831040006 | 64 | 275 | 0.0 | 7.0 | 0.00 | 0.00 | 0.00 | 66 | 1015.5 |
| 20260831034506 | 65 | 345 | 0.0 | 5.0 | 0.00 | 0.00 | 0.00 | 65 | 1015.5 |
| 20260831033013 | 65 | 296 | 0.0 | 6.0 | 0.00 | 0.00 | 0.00 | 65 | 1015.6 |
| 20260831031512 | 66 | 271 | 0.0 | 4.0 | 0.00 | 0.00 | 0.00 | 64 | 1015.5 |
| 20260831030004 | 66 | 355 | 0.0 | 9.0 | 0.00 | 0.00 | 0.00 | 63 | 1015.6 |
| 20260831024504 | 67 | 17 | 0.0 | 3.0 | 0.00 | 0.00 | 0.00 | 62 | 1015.7 |
| 20260831023002 | 68 | 338 | 0.0 | 8.0 | 0.00 | 0.00 | 0.00 | 60 | 1015.8 |
| 20260831021503 | 68 | 5 | 2.0 | 8.0 | 0.00 | 0.00 | 0.00 | 59 | 1015.8 |
| 20260831020002 | 69 | 40 | 1.0 | 7.0 | 0.00 | 0.00 | 0.00 | 58 | 1015.8 |
| 20260831014602 | 70 | 355 | 0.0 | 11.0 | 0.00 | 0.00 | 0.00 | 56 | 1015.9 |
| 20260831013105 | 71 | 19 | 1.0 | 8.0 | 0.00 | 0.00 | 0.00 | 55 | 1016.0 |
| 20260831011558 | 72 | 16 | 0.0 | 8.0 | 0.00 | 0.00 | 0.00 | 53 | 1016.1 |
| 20260831010057 | 73 | 39 | 0.0 | 7.0 | 0.00 | 0.00 | 0.00 | 51 | 1016.2 |
| 20260831004600 | 74 | 355 | 3.0 | 8.0 | 0.00 | 0.00 | 0.00 | 49 | 1016.3 |
| 20260831003056 | 75 | 338 | 0.0 | 7.0 | 0.00 | 0.00 | 0.00 | 49 | 1016.4 |
| 20260831001555 | 76 | 111 | 0.0 | 6.0 | 0.00 | 0.00 | 0.00 | 47 | 1016.3 |
| 20260831000055 | 75 | 323 | 2.0 | 8.0 | 0.00 | 0.00 | 0.00 | 48 | 1016.3 |
| 20260830234553 | 75 | 17 | 1.0 | 7.0 | 0.00 | 0.00 | 0.00 | 48 | 1016.4 |
| 20260830233052 | 75 | 311 | 1.0 | 7.0 | 0.00 | 0.00 | 0.00 | 47 | 1016.5 |
| 20260830231551 | 75 | 71 | 2.0 | 9.0 | 0.00 | 0.00 | 0.00 | 47 | 1016.7 |
| 20260830230048 | 75 | 32 | 0.0 | 6.0 | 0.00 | 0.00 | 0.00 | 47 | 1016.9 |
| 20260830224546 | 75 | 123 | 0.0 | 4.0 | 0.00 | 0.00 | 0.00 | 47 | 1017.1 |
| 20260830223041 | 74 | 14 | 1.0 | 8.0 | 0.00 | 0.00 | 0.00 | 46 | 1017.4 |
| 20260830221542 | 74 | 80 | 0.0 | 5.0 | 0.00 | 0.00 | 0.00 | 46 | 1017.6 |
| 20260830220039 | 73 | 17 | 0.0 | 7.0 | 0.00 | 0.00 | 0.00 | 47 | 1017.8 |
| 20260830214536 | 72 | 90 | 1.0 | 8.0 | 0.00 | 0.00 | 0.00 | 48 | 1017.9 |
| 20260830213037 | 73 | 100 | 1.0 | 7.0 | 0.00 | 0.00 | 0.00 | 47 | 1018.1 |
| 20260830211532 | 73 | 138 | 0.0 | 6.0 | 0.00 | 0.00 | 0.00 | 47 | 1018.3 |
| 20260830210028 | 73 | 292 | 0.0 | 7.0 | 0.00 | 0.00 | 0.00 | 46 | 1018.5 |
| 20260830204527 | 72 | 300 | 1.0 | 6.0 | 0.00 | 0.00 | 0.00 | 47 | 1018.6 |
| 20260830203023 | 71 | 48 | 0.0 | 7.0 | 0.00 | 0.00 | 0.00 | 48 | 1018.8 |
| 20260830201521 | 70 | 90 | 1.0 | 8.0 | 0.00 | 0.00 | 0.00 | 49 | 1019.0 |
| 20260830200018 | 70 | 91 | 0.0 | 8.0 | 0.00 | 0.00 | 0.00 | 50 | 1019.1 |
| 20260830194516 | 69 | 30 | 0.0 | 5.0 | 0.00 | 0.00 | 0.00 | 52 | 1019.3 |
| 20260830193012 | 67 | 106 | 0.0 | 3.0 | 0.00 | 0.00 | 0.00 | 54 | 1019.4 |
| 20260830191513 | 67 | 9 | 0.0 | 6.0 | 0.00 | 0.00 | 0.00 | 55 | 1019.7 |
| 20260830190009 | 66 | 16 | 0.0 | 1.0 | 0.00 | 0.01 | 0.00 | 59 | 1019.8 |
| 20260830184507 | 66 | 16 | 0.0 | 2.0 | 0.00 | 0.01 | 0.00 | 60 | 1019.9 |
| 20260830183006 | 66 | 18 | 0.0 | 0.0 | 0.00 | 0.01 | 0.00 | 60 | 1020.1 |
| 20260830181506 | 65 | 303 | 0.0 | 2.0 | 0.00 | 0.01 | 0.00 | 60 | 1020.2 |
| 20260830180005 | 65 | 115 | 1.0 | 6.0 | 0.00 | 0.01 | 0.00 | 60 | 1020.0 |
| 20260830174507 | 66 | 94 | 0.0 | 6.0 | 0.00 | 0.01 | 0.00 | 58 | 1020.2 |
| 20260830173002 | 66 | 96 | 0.0 | 0.0 | 0.00 | 0.01 | 0.00 | 60 | 1020.1 |
| 20260830171610 | 64 | 205 | 0.0 | 0.0 | 0.00 | 0.01 | 0.00 | 67 | 1020.2 |
| 20260830170055 | 63 | 205 | 0.0 | 4.0 | 0.00 | 0.01 | 0.00 | 69 | 1020.4 |
| 20260830164552 | 61 | 264 | 0.0 | 0.0 | 0.00 | 0.01 | 0.00 | 73 | 1020.4 |
| 20260830163050 | 60 | 264 | 0.0 | 0.0 | 0.00 | 0.01 | 0.00 | 75 | 1020.6 |
| 20260830161601 | 57 | 264 | 0.0 | 0.0 | 0.00 | 0.01 | 0.00 | 79 | 1020.5 |
| 20260830160041 | 55 | 264 | 0.0 | 0.0 | 0.00 | 0.01 | 0.00 | 84 | 1020.6 |
| 20260830154539 | 53 | 264 | 0.0 | 0.0 | 0.00 | 0.01 | 0.00 | 86 | 1020.8 |
| 20260830153041 | 52 | 264 | 0.0 | 0.0 | 0.00 | 0.01 | 0.00 | 88 | 1020.8 |
| 20260830151538 | 51 | 264 | 0.0 | 0.0 | 0.00 | 0.01 | 0.00 | 90 | 1020.8 |
| 20260830150036 | 48 | 264 | 0.0 | 0.0 | 0.00 | 0.01 | 0.00 | 92 | 1020.8 |
| 20260830144547 | 47 | 264 | 0.0 | 0.0 | 0.00 | 0.01 | 0.00 | 94 | 1020.8 |
| 20260830143035 | 46 | 264 | 0.0 | 0.0 | 0.00 | 0.01 | 0.00 | 95 | 1020.8 |
| 20260830141533 | 46 | 264 | 0.0 | 0.0 | 0.00 | 0.01 | 0.00 | 95 | 1020.7 |
| 20260830140032 | 46 | 264 | 0.0 | 0.0 | 0.00 | 0.01 | 0.00 | 96 | 1020.8 |
| 20260830134531 | 45 | 264 | 0.0 | 0.0 | 0.00 | 0.01 | 0.00 | 94 | 1020.7 |
| 20260830133032 | 45 | 264 | 0.0 | 0.0 | 0.00 | 0.01 | 0.00 | 94 | 1020.7 |
| 20260830131528 | 45 | 264 | 0.0 | 0.0 | 0.00 | 0.01 | 0.00 | 94 | 1020.5 |
| 20260830130028 | 46 | 264 | 0.0 | 0.0 | 0.00 | 0.01 | 0.00 | 94 | 1020.5 |
| 20260830124534 | 46 | 264 | 0.0 | 0.0 | 0.00 | 0.01 | 0.00 | 93 | 1020.5 |
| 20260830123025 | 46 | 264 | 0.0 | 0.0 | 0.00 | 0.01 | 0.00 | 92 | 1020.4 |
| 20260830121524 | 46 | 264 | 0.0 | 0.0 | 0.00 | 0.01 | 0.00 | 91 | 1020.4 |
| 20260830120022 | 47 | 264 | 0.0 | 0.0 | 0.00 | 0.01 | 0.00 | 93 | 1020.4 |
| 20260830114520 | 47 | 264 | 0.0 | 0.0 | 0.00 | 0.01 | 0.00 | 91 | 1020.3 |
| 20260830113021 | 48 | 264 | 0.0 | 0.0 | 0.00 | 0.01 | 0.00 | 91 | 1020.3 |
| 20260830111517 | 48 | 264 | 0.0 | 0.0 | 0.00 | 0.01 | 0.00 | 92 | 1020.3 |
| 20260830110016 | 48 | 264 | 0.0 | 0.0 | 0.00 | 0.01 | 0.00 | 92 | 1020.3 |
| 20260830104515 | 48 | 264 | 0.0 | 0.0 | 0.00 | 0.01 | 0.00 | 90 | 1020.3 |
| 20260830103028 | 49 | 264 | 0.0 | 0.0 | 0.00 | 0.01 | 0.00 | 89 | 1020.2 |
| 20260830101511 | 49 | 264 | 0.0 | 0.0 | 0.00 | 0.01 | 0.00 | 90 | 1020.1 |
| 20260830100009 | 50 | 264 | 0.0 | 0.0 | 0.00 | 0.01 | 0.00 | 89 | 1020.1 |
| 20260830094508 | 50 | 264 | 0.0 | 0.0 | 0.00 | 0.01 | 0.00 | 89 | 1020.2 |
| 20260830093012 | 50 | 264 | 0.0 | 0.0 | 0.00 | 0.01 | 0.00 | 89 | 1020.2 |
| 20260830091506 | 50 | 264 | 0.0 | 0.0 | 0.00 | 0.01 | 0.00 | 88 | 1020.1 |
| 20260830090007 | 50 | 264 | 0.0 | 0.0 | 0.00 | 0.01 | 0.00 | 88 | 1020.1 |
| 20260830084506 | 50 | 264 | 0.0 | 0.0 | 0.00 | 0.01 | 0.00 | 87 | 1020.3 |
| 20260830083003 | 50 | 264 | 0.0 | 0.0 | 0.00 | 0.01 | 0.00 | 86 | 1020.4 |
| 20260830081600 | 51 | 264 | 0.0 | 0.0 | 0.00 | 0.01 | 0.00 | 86 | 1020.3 |
| 20260830074600 | 52 | 264 | 0.0 | 0.0 | 0.00 | 0.01 | 0.00 | 83 | 1020.1 |
| 20260830073054 | 52 | 264 | 0.0 | 0.0 | 0.00 | 0.01 | 0.00 | 83 | 1020.1 |